[[{"header":{"parameterUnit":"m.s-1","parameterCategory":1,"la1":30.2991,"la2":30.254,"lo1":-89.0895,"lo2":-89.0444,"dy":0.0017,"dx":0.0017,"nx":28,"ny":28,"refTime":"2024-07-24T09:00:00:Z","depth":0,"parameterNumber":2,"parameterNumberName":"U-component_of_WINDS"},"data":[0,0,0,0,0,0,0,0,0,0,0,0,0,0,0,0,0,0,0,0,0,0,0,0,0,0,0,0,0,0,0,0,0,0,0,0,0,0,0,0,0,0,0,0,0,0,0,0,0,0,0,0,0,0,0,0,0,0,-0.4822,-0.482,0,-0.4617,-0.4615,-0.4612,-0.4523,-0.4524,-0.4524,-0.4524,-0.4313,-0.4308,-0.4302,0,0,0,0,0,0,0,0,0,0,0,0,0,-0.5138,-0.5133,-0.4823,-0.482,-0.4818,-0.4617,-0.4615,-0.4612,-0.4523,-0.4524,-0.4524,-0.4525,-0.4315,-0.4308,-0.4301,0,0,0,0,0,0,0,0,0,0,0,0,0,-0.4974,-0.5131,-0.4823,-0.4749,-0.4741,-0.4618,-0.4615,-0.4611,-0.4523,-0.4524,-0.4524,-0.4525,-0.4318,-0.4309,-0.43,-0.4235,0,0,-0.4273,-0.4269,0,0,0,0,0,0,0,0,-0.4983,-0.4963,-0.4763,-0.4754,-0.4744,-0.4596,-0.4648,-0.4485,-0.4523,-0.4606,-0.4524,-0.4525,-0.4407,-0.4391,-0.4351,-0.4226,-0.4217,-0.4272,-0.4267,-0.4263,-0.4261,0,0,0,0,0,0,0,-0.4995,-0.4971,-0.4741,-0.476,-0.4749,-0.4726,-0.4704,-0.4617,-0.4506,-0.4599,-0.4592,-0.4569,-0.4402,-0.436,-0.4346,-0.4213,-0.4273,-0.4265,-0.4259,-0.4256,-0.4024,-0.4023,0,0,0,0,0,0,-0.5019,-0.4981,-0.4748,-0.4735,-0.4868,-0.472,-0.4695,-0.4643,-0.4507,-0.4487,-0.4568,-0.4565,-0.4375,-0.4356,-0.4338,-0.4252,-0.4263,-0.4255,-0.425,-0.4025,-0.4024,-0.4023,0,0,0,0,0,0,-0.5026,-0.4999,-0.4756,-0.4856,-0.4823,-0.4714,-0.4657,-0.4639,-0.4597,-0.4484,-0.4464,-0.4546,-0.4375,-0.435,-0.4261,-0.4243,-0.4251,-0.4243,-0.4025,-0.4024,-0.4023,-0.4081,0,0,0,0,0,0,-0.5035,-0.5002,-0.4976,-0.4856,-0.4819,-0.4683,-0.4656,-0.4635,-0.4582,-0.4576,-0.4457,-0.4438,-0.4373,-0.4275,-0.4253,-0.4231,-0.4236,-0.4027,-0.4025,-0.4023,-0.408,-0.4082,-0.4083,0,0,0,0,0,-0.5047,-0.5,-0.4975,-0.4947,-0.4784,-0.4683,-0.4661,-0.4587,-0.4581,-0.4554,-0.4481,-0.4442,-0.425,-0.4267,-0.4241,-0.4216,-0.4027,-0.4025,-0.4024,-0.4079,-0.4081,-0.4083,0,0,0,0,0,0,-0.5121,-0.4983,-0.4954,-0.4867,-0.4787,-0.4668,-0.4631,-0.4592,-0.4512,-0.4509,-0.4421,-0.4395,-0.4314,-0.4256,-0.4278,-0.4146,-0.4135,-0.4128,-0.4186,-0.4187,-0.4189,-0.4204,-0.4228,0,0,0,0,0,-0.5127,-0.5056,-0.494,-0.4875,-0.4836,-0.4741,-0.4694,-0.4644,-0.4558,-0.4523,-0.4444,-0.4362,-0.4283,-0.4232,-0.4153,-0.4072,-0.4044,-0.4042,-0.4044,-0.4046,-0.404,-0.3992,-0.3989,-0.4016,-0.4016,-0.4017,0,0,-0.5139,-0.5055,-0.5016,-0.4888,-0.482,-0.4748,-0.4713,-0.4639,-0.4584,-0.4512,-0.4423,-0.4362,-0.4264,-0.4179,-0.4137,-0.4129,-0.4027,-0.4044,-0.4046,-0.4039,-0.399,-0.3987,-0.3985,-0.4015,-0.4015,-0.4016,0,0,-0.5124,-0.5054,-0.4992,-0.4925,-0.4822,-0.4759,-0.4745,-0.4631,-0.4588,-0.4497,-0.4441,-0.4376,-0.4242,-0.4174,-0.4122,-0.4082,-0.4042,-0.4059,-0.4067,-0.4021,-0.4019,-0.4016,-0.4001,-0.3996,-0.4054,-0.4054,-0.4055,0,-0.5152,-0.5041,-0.4965,-0.4893,-0.4838,-0.477,-0.4706,-0.4644,-0.4522,-0.4485,-0.4478,-0.4308,-0.4237,-0.4134,-0.4125,-0.4085,-0.4065,-0.4071,-0.4025,-0.4022,-0.4019,-0.4003,-0.3997,-0.4057,-0.4057,-0.4056,-0.4056,0,-0.508,-0.5004,-0.4966,-0.4849,-0.479,-0.4723,-0.4636,-0.4586,-0.4542,-0.448,-0.4388,-0.4301,-0.4203,-0.4176,-0.4132,-0.4067,-0.4064,-0.4042,-0.4029,-0.402,-0.4003,-0.3997,-0.4061,-0.406,-0.4059,-0.4058,0,0,-0.5104,-0.4946,-0.4933,-0.4879,-0.4762,-0.4702,-0.4632,-0.4536,-0.4494,-0.4412,-0.435,-0.4239,-0.4218,-0.4159,-0.4107,-0.4067,-0.404,-0.4049,-0.4046,-0.4049,-0.3961,-0.3977,-0.3971,-0.4014,-0.4013,-0.4011,-0.3969,0,-0.5071,-0.4942,-0.4871,-0.4771,-0.47,-0.4635,-0.4574,-0.4496,-0.4436,-0.4367,-0.4302,-0.4223,-0.4202,-0.4166,-0.4124,-0.4052,-0.4021,-0.4055,-0.3954,-0.3952,-0.3979,-0.3963,-0.3979,-0.3943,-0.3962,-0.3961,-0.396,0,-0.5015,-0.4935,-0.4828,-0.4718,-0.4686,-0.4632,-0.4538,-0.4474,-0.4383,-0.4343,-0.4278,-0.4227,-0.415,-0.4145,-0.4037,-0.4062,-0.4017,-0.3976,-0.3973,-0.3959,-0.3954,-0.3947,-0.393,-0.3924,-0.395,-0.395,-0.3951,0,-0.5042,-0.4906,-0.4824,-0.4781,-0.4651,-0.4615,-0.4559,-0.447,-0.4417,-0.4335,-0.4299,-0.4211,-0.4162,-0.4094,-0.402,-0.4023,-0.3919,-0.3908,-0.3883,-0.3884,-0.3862,-0.3864,-0.3836,-0.3837,-0.3837,-0.3837,-0.3837,0,-0.5012,-0.4948,-0.4834,-0.4784,-0.4711,-0.4631,-0.4561,-0.4501,-0.4422,-0.4358,-0.4298,-0.4239,-0.4146,-0.4076,-0.4018,-0.3937,-0.3916,-0.3881,-0.3866,-0.3885,-0.3889,-0.3852,-0.3852,-0.3836,-0.3836,-0.3836,-0.3837,0,-0.5027,-0.4949,-0.4855,-0.4741,-0.471,-0.4662,-0.4564,-0.4512,-0.4451,-0.4371,-0.4348,-0.425,-0.4165,-0.4085,-0.3972,-0.3933,-0.3851,-0.3832,-0.3881,-0.3872,-0.3851,-0.3853,-0.3796,-0.3784,-0.3796,-0.3796,-0.3796,0,-0.5012,-0.4962,-0.4842,-0.4796,-0.4741,-0.4667,-0.4612,-0.4532,-0.4478,-0.4371,-0.4333,-0.4243,-0.4167,-0.4033,-0.3952,-0.3865,-0.3843,-0.3829,-0.3829,-0.385,-0.384,-0.3843,-0.3837,-0.383,-0.383,-0.383,-0.3831,0,-0.4994,-0.4957,-0.4881,-0.4791,-0.4727,-0.4653,-0.4576,-0.4541,-0.4447,-0.4389,-0.4301,-0.4242,-0.4126,-0.4037,-0.3941,-0.3883,-0.3841,-0.3832,-0.3821,-0.3838,-0.3868,-0.385,-0.3882,-0.3833,-0.3832,-0.3832,-0.3832,-0.3832,-0.4992,-0.4944,-0.4852,-0.4769,-0.4703,-0.4633,-0.4578,-0.451,-0.4435,-0.4334,-0.4292,-0.4203,-0.4114,-0.398,-0.3923,-0.3852,-0.3842,-0.3827,-0.3823,-0.382,-0.3823,-0.3882,-0.3834,-0.3834,-0.3834,-0.3834,-0.3834,0,-0.4968,-0.4906,-0.483,-0.4725,-0.466,-0.4627,-0.454,-0.4487,-0.441,-0.433,-0.4257,-0.4155,-0.4069,-0.3982,-0.3891,-0.3851,-0.3829,-0.383,-0.383,-0.3818,-0.3837,-0.3855,-0.3849,-0.3849,-0.3849,-0.3849,-0.3849,-0.3849,-0.4948,-0.4864,-0.4817,-0.4701,-0.4639,-0.455,-0.4504,-0.4439,-0.4375,-0.4264,-0.4193,-0.4137,-0.4054,-0.3956,-0.3876,-0.3852,-0.3821,-0.3827,-0.3798,-0.3817,-0.3816,-0.3816,-0.3832,-0.3821,-0.3821,-0.3783,-0.3783,-0.3783]},{"header":{"parameterUnit":"m.s-1","parameterCategory":1,"la1":30.2991,"la2":30.254,"lo1":-89.0895,"lo2":-89.0444,"dy":0.0017,"dx":0.0017,"nx":28,"ny":28,"refTime":"2024-07-24T09:00:00:Z","depth":0,"parameterNumber":3,"parameterNumberName":"V-component_of_WINDS"},"data":[0,0,0,0,0,0,0,0,0,0,0,0,0,0,0,0,0,0,0,0,0,0,0,0,0,0,0,0,0,0,0,0,0,0,0,0,0,0,0,0,0,0,0,0,0,0,0,0,0,0,0,0,0,0,0,0,0,0,3.6755,3.6755,0,3.6776,3.6777,3.6777,3.6714,3.6712,3.671,3.6708,3.6729,3.6732,3.6734,0,0,0,0,0,0,0,0,0,0,0,0,0,3.6658,3.6661,3.6755,3.6755,3.6756,3.6776,3.6777,3.6777,3.6714,3.6712,3.671,3.6708,3.6729,3.6731,3.6734,0,0,0,0,0,0,0,0,0,0,0,0,0,3.6692,3.6661,3.6755,3.6727,3.6725,3.6776,3.6777,3.6777,3.6715,3.6712,3.6709,3.6707,3.6728,3.6731,3.6735,3.6814,0,0,3.6745,3.6747,0,0,0,0,0,0,0,0,3.669,3.6696,3.6731,3.6729,3.6727,3.674,3.675,3.6789,3.6716,3.6719,3.6708,3.6705,3.6735,3.6738,3.6748,3.6815,3.6816,3.6746,3.6748,3.6749,3.675,0,0,0,0,0,0,0,3.6688,3.6695,3.6763,3.6732,3.6729,3.6713,3.6714,3.6757,3.6743,3.6718,3.6714,3.6717,3.6733,3.6745,3.6748,3.6816,3.6745,3.6749,3.6751,3.6752,3.6947,3.695,0,0,0,0,0,0,3.669,3.6693,3.6763,3.6764,3.6701,3.6717,3.6719,3.6738,3.6742,3.674,3.672,3.6714,3.674,3.6744,3.6749,3.6841,3.6749,3.6752,3.6754,3.6944,3.6948,3.6951,0,0,0,0,0,0,3.6688,3.6696,3.6762,3.6727,3.6734,3.6722,3.6744,3.674,3.6752,3.6743,3.674,3.6734,3.6738,3.6744,3.6798,3.6841,3.6754,3.6757,3.6941,3.6946,3.695,3.7028,0,0,0,0,0,0,3.6685,3.6696,3.6727,3.6729,3.6737,3.6812,3.6747,3.6743,3.6758,3.6751,3.6756,3.6754,3.6736,3.6793,3.6801,3.6844,3.676,3.6937,3.6943,3.6948,3.7021,3.7034,3.7046,0,0,0,0,0,3.6682,3.6748,3.6729,3.6738,3.6775,3.6815,3.6819,3.6798,3.6762,3.6792,3.6786,3.6754,3.6835,3.6799,3.6808,3.6853,3.6934,3.6941,3.6948,3.7016,3.7032,3.7045,0,0,0,0,0,0,3.6752,3.6748,3.6727,3.6795,3.6806,3.6804,3.6842,3.6815,3.6836,3.6829,3.6801,3.6802,3.6862,3.6862,3.6823,3.6929,3.6878,3.6887,3.6927,3.6942,3.6954,3.6953,3.6763,0,0,0,0,0,3.6776,3.6809,3.6803,3.6864,3.687,3.6855,3.6872,3.6854,3.6864,3.6868,3.6866,3.6876,3.6904,3.6923,3.6947,3.702,3.702,3.7055,3.7068,3.7078,3.7086,3.7124,3.7139,3.6974,3.6974,3.6974,0,0,3.6825,3.6826,3.6849,3.6878,3.6884,3.6919,3.686,3.6899,3.6924,3.6874,3.6925,3.6924,3.6933,3.6997,3.7025,3.6999,3.7131,3.7086,3.7095,3.7098,3.7133,3.7148,3.7162,3.6979,3.6978,3.6977,0,0,3.6931,3.6936,3.6987,3.6994,3.7004,3.6993,3.7005,3.7007,3.7004,3.7055,3.7018,3.7047,3.7095,3.7103,3.7114,3.7221,3.7192,3.723,3.7294,3.7332,3.7345,3.7356,3.7394,3.7408,3.7238,3.7238,3.7239,0,3.6991,3.7042,3.7017,3.7058,3.7072,3.7027,3.7078,3.7086,3.7104,3.7114,3.7084,3.7143,3.7147,3.7211,3.7237,3.7247,3.726,3.723,3.7345,3.7356,3.7366,3.7402,3.7417,3.7243,3.7242,3.7242,3.7242,0,3.7114,3.715,3.719,3.7208,3.7225,3.7271,3.7252,3.7273,3.7253,3.7245,3.7297,3.7299,3.7323,3.7337,3.7318,3.7399,3.7382,3.735,3.7298,3.7387,3.7421,3.7434,3.725,3.7248,3.7247,3.7245,0,0,3.7268,3.727,3.7285,3.7292,3.7299,3.7325,3.7368,3.7392,3.741,3.7423,3.7458,3.7499,3.7468,3.748,3.7461,3.7494,3.7579,3.7457,3.7457,3.748,3.7667,3.7693,3.7709,3.7559,3.7561,3.7563,3.7667,0,3.7374,3.7448,3.7426,3.7501,3.7533,3.749,3.7527,3.7535,3.7528,3.7554,3.7545,3.7575,3.7532,3.7539,3.7569,3.7562,3.7616,3.7554,3.7591,3.7593,3.7591,3.7727,3.7754,3.7852,3.768,3.7682,3.7683,0,3.7507,3.7525,3.7603,3.7603,3.7615,3.765,3.7668,3.7693,3.7701,3.7693,3.7706,3.768,3.7721,3.7669,3.7725,3.7683,3.7697,3.7696,3.7699,3.7702,3.7644,3.7734,3.7882,3.7897,3.7704,3.7702,3.7701,0,3.7612,3.7655,3.7707,3.7714,3.7715,3.774,3.7742,3.7746,3.7761,3.7777,3.7786,3.7807,3.7819,3.7835,3.7815,3.7779,3.7875,3.7821,3.787,3.787,3.7893,3.7892,3.8046,3.79,3.79,3.79,3.7899,0,3.7733,3.7782,3.7754,3.7786,3.784,3.7813,3.7866,3.7863,3.7866,3.7897,3.786,3.7889,3.7861,3.7887,3.7871,3.792,3.7926,3.792,3.7916,3.7924,3.7925,3.7934,3.7927,3.7904,3.7903,3.7902,3.7901,0,3.786,3.7843,3.7897,3.7892,3.7892,3.7932,3.7928,3.7957,3.7947,3.7985,3.7993,3.7976,3.8005,3.7986,3.8015,3.8005,3.8069,3.8055,3.8067,3.8063,3.8113,3.8109,3.8279,3.83,3.814,3.8142,3.8143,0,3.7939,3.7976,3.7975,3.7992,3.7996,3.8025,3.8039,3.8013,3.803,3.804,3.8068,3.8093,3.8112,3.816,3.8151,3.8172,3.8158,3.8216,3.8162,3.8169,3.816,3.8158,3.8162,3.8228,3.823,3.8231,3.8232,0,3.808,3.807,3.8093,3.8112,3.8131,3.8145,3.8156,3.8173,3.8146,3.8166,3.8195,3.821,3.8239,3.8264,3.8282,3.8283,3.8254,3.8249,3.8262,3.8272,3.8277,3.8275,3.8098,3.8246,3.8245,3.8244,3.8243,3.8242,3.8186,3.8216,3.822,3.8247,3.8252,3.8263,3.829,3.8282,3.8305,3.8327,3.8309,3.8344,3.8348,3.8368,3.8373,3.8399,3.8375,3.8393,3.8398,3.8403,3.841,3.8272,3.8402,3.8401,3.8401,3.84,3.84,0,3.8326,3.8326,3.835,3.8367,3.8387,3.8356,3.8367,3.8386,3.8416,3.8423,3.8442,3.8474,3.8498,3.849,3.8511,3.8534,3.8521,3.854,3.8539,3.854,3.843,3.8417,3.855,3.855,3.855,3.855,3.855,3.855,3.8402,3.8452,3.8441,3.8492,3.8491,3.8524,3.8533,3.8542,3.8547,3.8585,3.8605,3.8599,3.8599,3.862,3.864,3.8637,3.8647,3.8672,3.8664,3.8562,3.8547,3.8533,3.8521,3.8674,3.8674,3.8771,3.8772,3.8772]}]]